When you browse on this site, cookies collect data to enhance your experience and personalize the content and advertising you see.
Visit our Privacy Policy to learn more. By continuing to use the site, you agree to this use of cookies and data.
  • In Switzerland
  • List of Countries
  • For 7 days
  • Water Temperature
  • Weather Map
  • Weather Widgets
  • user-avatar
    Login

    Hourly Weather Asadabad

    Today, 21 February, Friday

    Time Temperature Precipitation Wind Pressure Humidity
    00:00 +8°C° 0 mm 3 mps 659 mmHg 49%
    01:00 +8°C° 0 mm 3 mps 658 mmHg 46%
    02:00 +8°C° 0 mm 3 mps 658 mmHg 42%
    03:00 +7°C° 0 mm 3 mps 658 mmHg 40%
    04:00 +7°C° 0 mm 2 mps 658 mmHg 39%
    05:00 +7°C° 0 mm 2 mps 657 mmHg 35%
    06:00 +7°C° 0 mm 2 mps 658 mmHg 35%
    07:00 +8°C° 0 mm 3 mps 658 mmHg 35%
    08:00 +8°C° 0 mm 3 mps 659 mmHg 35%
    09:00 +10°C° 0 mm 2 mps 660 mmHg 31%
    10:00 +13°C° 0 mm 2 mps 660 mmHg 27%
    11:00 +16°C° 0 mm 1 mps 660 mmHg 23%
    18:00 +15°C° 0 mm 1 mps 660 mmHg 39%
    19:00 +13°C° 0 mm 1 mps 660 mmHg 46%
    20:00 +10°C° 0 mm 0 mps 661 mmHg 53%
    21:00 +11°C° 0 mm 1 mps 661 mmHg 52%
    22:00 +11°C° 0 mm 1 mps 661 mmHg 50%
    23:00 +11°C° 0 mm 1 mps 661 mmHg 49%

    Tomorrow, 22 February, Saturday

    Time Temperature Precipitation Wind Pressure Humidity
    00:00 +10°C° 0 mm 1 mps 661 mmHg 47%
    01:00 +9°C° 0 mm 2 mps 661 mmHg 46%
    02:00 +9°C° 0 mm 2 mps 661 mmHg 44%
    03:00 +8°C° 0 mm 2 mps 661 mmHg 43%
    04:00 +8°C° 0 mm 2 mps 660 mmHg 43%
    05:00 +8°C° 0 mm 3 mps 660 mmHg 42%
    06:00 +8°C° 0 mm 3 mps 661 mmHg 42%
    07:00 +9°C° 0 mm 2 mps 661 mmHg 42%
    08:00 +9°C° 0 mm 2 mps 661 mmHg 41%
    09:00 +12°C° 0 mm 2 mps 662 mmHg 37%
    10:00 +14°C° 0 mm 2 mps 662 mmHg 32%
    11:00 +15°C° 0 mm 1 mps 663 mmHg 27%
    12:00 +16°C° 0 mm 1 mps 662 mmHg 27%
    13:00 +18°C° 0 mm 1 mps 662 mmHg 27%
    14:00 +18°C° 0 mm 1 mps 662 mmHg 26%
    15:00 +18°C° 0 mm 1 mps 661 mmHg 28%
    16:00 +18°C° 0 mm 1 mps 661 mmHg 30%
    17:00 +17°C° 0 mm 2 mps 661 mmHg 32%
    18:00 +15°C° 0 mm 1 mps 661 mmHg 39%
    19:00 +13°C° 0 mm 1 mps 661 mmHg 46%
    20:00 +11°C° 0 mm 0 mps 661 mmHg 53%
    21:00 +11°C° 0 mm 1 mps 661 mmHg 51%
    22:00 +11°C° 0 mm 1 mps 661 mmHg 49%
    23:00 +10°C° 0 mm 2 mps 661 mmHg 47%

    Day after tomorrow, 23 February, Sunday

    Time Temperature Precipitation Wind Pressure Humidity
    00:00 +10°C° 0 mm 2 mps 661 mmHg 45%
    01:00 +9°C° 0 mm 2 mps 660 mmHg 44%
    02:00 +9°C° 0 mm 3 mps 660 mmHg 42%
    03:00 +9°C° 0 mm 3 mps 659 mmHg 41%
    04:00 +8°C° 0 mm 3 mps 659 mmHg 41%
    05:00 +8°C° 0 mm 3 mps 658 mmHg 40%
    06:00 +8°C° 0 mm 3 mps 659 mmHg 39%
    07:00 +9°C° 0 mm 3 mps 659 mmHg 39%
    08:00 +9°C° 0 mm 3 mps 659 mmHg 38%
    09:00 +12°C° 0 mm 2 mps 660 mmHg 33%
    10:00 +14°C° 0 mm 2 mps 660 mmHg 29%
    11:00 +16°C° 0 mm 1 mps 661 mmHg 24%
    12:00 +18°C° 0 mm 1 mps 660 mmHg 24%
    13:00 +19°C° 0 mm 1 mps 660 mmHg 24%
    14:00 +19°C° 0 mm 1 mps 660 mmHg 24%
    15:00 +19°C° 0 mm 1 mps 660 mmHg 25%
    16:00 +18°C° 0 mm 2 mps 659 mmHg 27%
    17:00 +18°C° 0 mm 2 mps 659 mmHg 29%
    18:00 +16°C° 0 mm 1 mps 659 mmHg 36%
    19:00 +14°C° 0 mm 1 mps 659 mmHg 43%
    20:00 +11°C° 0 mm 0 mps 659 mmHg 50%
    21:00 +12°C° 0 mm 1 mps 659 mmHg 47%
    22:00 +12°C° 0 mm 1 mps 659 mmHg 45%
    23:00 +10°C° 0 mm 2 mps 659 mmHg 43%

    24 February, Monday

    Time Temperature Precipitation Wind Pressure Humidity
    00:00 +10°C° 0 mm 2 mps 658 mmHg 42%
    01:00 +10°C° 0 mm 3 mps 658 mmHg 42%
    02:00 +9°C° 0 mm 3 mps 658 mmHg 41%
    03:00 +9°C° 0 mm 3 mps 657 mmHg 40%
    04:00 +9°C° 0 mm 3 mps 657 mmHg 40%
    05:00 +8°C° 0 mm 3 mps 657 mmHg 39%
    06:00 +9°C° 0 mm 3 mps 657 mmHg 39%
    07:00 +9°C° 0 mm 3 mps 657 mmHg 38%
    08:00 +10°C° 0 mm 3 mps 658 mmHg 38%
    09:00 +11°C° 0 mm 3 mps 658 mmHg 34%
    10:00 +14°C° 0 mm 2 mps 658 mmHg 29%
    11:00 +16°C° 0 mm 2 mps 659 mmHg 25%
    12:00 +18°C° 0 mm 1 mps 658 mmHg 25%
    13:00 +19°C° 0 mm 1 mps 658 mmHg 25%
    14:00 +19°C° 0 mm 1 mps 658 mmHg 25%
    15:00 +18°C° 0 mm 2 mps 657 mmHg 26%
    16:00 +18°C° 0 mm 2 mps 657 mmHg 27%
    17:00 +18°C° 0 mm 2 mps 657 mmHg 29%
    18:00 +16°C° 0 mm 1 mps 657 mmHg 36%
    19:00 +14°C° 0 mm 1 mps 657 mmHg 43%
    20:00 +11°C° 0 mm 0 mps 657 mmHg 50%
    21:00 +12°C° 0 mm 1 mps 657 mmHg 48%
    22:00 +12°C° 0 mm 2 mps 657 mmHg 46%
    23:00 +10°C° 0 mm 2 mps 657 mmHg 43%

    25 February, Tuesday

    Time Temperature Precipitation Wind Pressure Humidity
    00:00 +10°C° 0 mm 2 mps 657 mmHg 42%
    01:00 +10°C° 0 mm 3 mps 656 mmHg 41%
    02:00 +9°C° 0 mm 3 mps 656 mmHg 41%
    03:00 +9°C° 0 mm 3 mps 656 mmHg 40%
    04:00 +9°C° 0 mm 3 mps 656 mmHg 40%
    05:00 +8°C° 0 mm 3 mps 656 mmHg 39%
    06:00 +9°C° 0 mm 3 mps 656 mmHg 38%
    07:00 +9°C° 0 mm 3 mps 656 mmHg 37%
    08:00 +10°C° 0 mm 3 mps 657 mmHg 37%
    09:00 +12°C° 0 mm 3 mps 657 mmHg 32%
    10:00 +14°C° 0 mm 2 mps 657 mmHg 28%
    11:00 +16°C° 0 mm 1 mps 657 mmHg 24%
    12:00 +18°C° 0 mm 1 mps 657 mmHg 24%
    13:00 +17°C° 0 mm 2 mps 657 mmHg 24%
    14:00 +18°C° 0 mm 2 mps 657 mmHg 25%
    15:00 +18°C° 0 mm 2 mps 656 mmHg 26%
    16:00 +18°C° 0 mm 2 mps 656 mmHg 27%
    17:00 +18°C° 0 mm 2 mps 656 mmHg 28%
    18:00 +16°C° 0 mm 1 mps 656 mmHg 34%
    19:00 +14°C° 0 mm 1 mps 656 mmHg 41%
    20:00 +11°C° 0 mm 0 mps 656 mmHg 47%
    21:00 +12°C° 0 mm 1 mps 656 mmHg 45%
    22:00 +12°C° 0 mm 1 mps 656 mmHg 43%
    23:00 +12°C° 0 mm 2 mps 656 mmHg 42%

    26 February, Wednesday

    Time Temperature Precipitation Wind Pressure Humidity
    00:00 +10°C° 0 mm 2 mps 656 mmHg 41%
    01:00 +10°C° 0 mm 2 mps 656 mmHg 40%
    02:00 +10°C° 0 mm 2 mps 655 mmHg 39%
    03:00 +9°C° 0 mm 2 mps 655 mmHg 38%
    04:00 +9°C° 0 mm 2 mps 655 mmHg 36%
    05:00 +9°C° 0 mm 2 mps 654 mmHg 35%
    06:00 +9°C° 0 mm 2 mps 655 mmHg 35%
    07:00 +10°C° 0 mm 2 mps 655 mmHg 34%
    08:00 +12°C° 0 mm 2 mps 655 mmHg 33%
    09:00 +13°C° 0 mm 2 mps 656 mmHg 30%
    10:00 +15°C° 0 mm 2 mps 656 mmHg 26%
    11:00 +16°C° 0 mm 1 mps 657 mmHg 23%
    12:00 +18°C° 0 mm 1 mps 657 mmHg 23%
    13:00 +18°C° 0 mm 1 mps 657 mmHg 24%
    14:00 +18°C° 0 mm 2 mps 657 mmHg 24%
    15:00 +18°C° 0 mm 2 mps 657 mmHg 25%
    16:00 +17°C° 0 mm 2 mps 657 mmHg 27%
    17:00 +17°C° 0 mm 2 mps 657 mmHg 28%
    18:00 +15°C° 0 mm 1 mps 657 mmHg 34%
    19:00 +14°C° 0 mm 1 mps 657 mmHg 41%
    20:00 +11°C° 0 mm 0 mps 657 mmHg 47%
    21:00 +12°C° 0 mm 1 mps 657 mmHg 47%
    22:00 +12°C° 0 mm 1 mps 658 mmHg 46%
    23:00 +12°C° 0 mm 1 mps 658 mmHg 46%
    Show more